#datetime,building,power
2022-06-30T00:00:00,rvs,16.11
2022-06-30T00:01:00,rvs,16.53
2022-06-30T00:02:00,rvs,17.49
2022-06-30T00:03:00,rvs,17.42
2022-06-30T00:04:00,rvs,17.24
2022-06-30T00:05:00,rvs,16.99
2022-06-30T00:06:00,rvs,35.95
2022-06-30T00:07:00,rvs,19.36
2022-06-30T00:08:00,rvs,20.56
2022-06-30T00:09:00,rvs,22.80
2022-06-30T00:10:00,rvs,23.58
2022-06-30T00:11:00,rvs,23.44
2022-06-30T00:12:00,rvs,24.20
2022-06-30T00:13:00,rvs,24.17
2022-06-30T00:14:00,rvs,19.14
2022-06-30T00:15:00,rvs,19.21
2022-06-30T00:16:00,rvs,19.36
2022-06-30T00:17:00,rvs,19.40
2022-06-30T00:18:00,rvs,19.09
2022-06-30T00:19:00,rvs,19.66
2022-06-30T00:20:00,rvs,20.08
2022-06-30T00:21:00,rvs,19.46
2022-06-30T00:22:00,rvs,19.47
2022-06-30T00:23:00,rvs,20.84
2022-06-30T00:24:00,rvs,19.40
2022-06-30T00:25:00,rvs,19.26
2022-06-30T00:26:00,rvs,18.09
2022-06-30T00:27:00,rvs,20.84
2022-06-30T00:28:00,rvs,21.79
2022-06-30T00:29:00,rvs,24.28
2022-06-30T00:30:00,rvs,25.11
2022-06-30T00:31:00,rvs,25.35
2022-06-30T00:32:00,rvs,25.21
2022-06-30T00:33:00,rvs,26.22
2022-06-30T00:34:00,rvs,28.27
2022-06-30T00:35:00,rvs,29.76
2022-06-30T00:36:00,rvs,30.45
2022-06-30T00:37:00,rvs,25.92
2022-06-30T00:38:00,rvs,24.20
2022-06-30T00:39:00,rvs,24.22
2022-06-30T00:40:00,rvs,23.81
2022-06-30T00:41:00,rvs,23.29
2022-06-30T00:42:00,rvs,18.74
2022-06-30T00:43:00,rvs,18.99
2022-06-30T00:44:00,rvs,17.34
2022-06-30T00:45:00,rvs,17.34
2022-06-30T00:46:00,rvs,17.41
2022-06-30T00:47:00,rvs,17.18
2022-06-30T00:48:00,rvs,17.55
2022-06-30T00:49:00,rvs,17.75
2022-06-30T00:50:00,rvs,17.27
2022-06-30T00:51:00,rvs,17.77
2022-06-30T00:52:00,rvs,18.12
2022-06-30T00:53:00,rvs,18.18
2022-06-30T00:54:00,rvs,17.96
2022-06-30T00:55:00,rvs,17.04
2022-06-30T00:56:00,rvs,14.86
2022-06-30T00:57:00,rvs,14.53
2022-06-30T00:58:00,rvs,14.68
2022-06-30T00:59:00,rvs,14.35
2022-06-30T01:00:00,rvs,14.48
2022-06-30T01:01:00,rvs,14.82
2022-06-30T01:02:00,rvs,15.11
2022-06-30T01:03:00,rvs,17.92
2022-06-30T01:04:00,rvs,16.75
2022-06-30T01:05:00,rvs,16.46
2022-06-30T01:06:00,rvs,16.88
2022-06-30T01:07:00,rvs,17.09
2022-06-30T01:08:00,rvs,18.20
2022-06-30T01:09:00,rvs,18.00
2022-06-30T01:10:00,rvs,31.49
2022-06-30T01:11:00,rvs,27.24
2022-06-30T01:12:00,rvs,26.97
2022-06-30T01:13:00,rvs,26.92
2022-06-30T01:14:00,rvs,26.79
2022-06-30T01:15:00,rvs,13.80
2022-06-30T01:16:00,rvs,13.93
2022-06-30T01:17:00,rvs,16.13
2022-06-30T01:18:00,rvs,16.22
2022-06-30T01:19:00,rvs,16.33
2022-06-30T01:20:00,rvs,15.70
2022-06-30T01:21:00,rvs,15.90
2022-06-30T01:22:00,rvs,16.66
2022-06-30T01:23:00,rvs,18.58
2022-06-30T01:24:00,rvs,18.55
2022-06-30T01:25:00,rvs,19.01
2022-06-30T01:26:00,rvs,19.56
2022-06-30T01:27:00,rvs,19.91
2022-06-30T01:28:00,rvs,19.79
2022-06-30T01:29:00,rvs,19.59
2022-06-30T01:30:00,rvs,19.59
2022-06-30T01:31:00,rvs,19.96
2022-06-30T01:32:00,rvs,19.99
2022-06-30T01:33:00,rvs,19.98
2022-06-30T01:34:00,rvs,15.84
2022-06-30T01:35:00,rvs,15.92
2022-06-30T01:36:00,rvs,16.37
2022-06-30T01:37:00,rvs,12.08
2022-06-30T01:38:00,rvs,12.14
2022-06-30T01:39:00,rvs,12.03
2022-06-30T01:40:00,rvs,12.03
2022-06-30T01:41:00,rvs,12.01
2022-06-30T01:42:00,rvs,11.98
2022-06-30T01:43:00,rvs,11.94
2022-06-30T01:44:00,rvs,12.02
2022-06-30T01:45:00,rvs,11.96
2022-06-30T01:46:00,rvs,12.01
2022-06-30T01:47:00,rvs,12.38
2022-06-30T01:48:00,rvs,12.08
2022-06-30T01:49:00,rvs,12.11
2022-06-30T01:50:00,rvs,12.21
2022-06-30T01:51:00,rvs,11.94
2022-06-30T01:52:00,rvs,12.00
2022-06-30T01:53:00,rvs,11.96
2022-06-30T01:54:00,rvs,11.99
2022-06-30T01:55:00,rvs,14.24
2022-06-30T01:56:00,rvs,14.66
2022-06-30T01:57:00,rvs,15.11
2022-06-30T01:58:00,rvs,15.14
2022-06-30T01:59:00,rvs,15.43
2022-06-30T02:00:00,rvs,15.66
2022-06-30T02:01:00,rvs,15.98
2022-06-30T02:02:00,rvs,16.09
2022-06-30T02:03:00,rvs,15.94
2022-06-30T02:04:00,rvs,15.73
2022-06-30T02:05:00,rvs,15.81
2022-06-30T02:06:00,rvs,15.99
2022-06-30T02:07:00,rvs,15.23
2022-06-30T02:08:00,rvs,12.66
2022-06-30T02:09:00,rvs,12.72
2022-06-30T02:10:00,rvs,12.11
2022-06-30T02:11:00,rvs,12.47
2022-06-30T02:12:00,rvs,12.75
2022-06-30T02:13:00,rvs,16.61
2022-06-30T02:14:00,rvs,17.18
2022-06-30T02:15:00,rvs,17.22
2022-06-30T02:16:00,rvs,17.40
2022-06-30T02:17:00,rvs,17.98
2022-06-30T02:18:00,rvs,18.40
2022-06-30T02:19:00,rvs,18.05
2022-06-30T02:20:00,rvs,18.03
2022-06-30T02:21:00,rvs,18.04
2022-06-30T02:22:00,rvs,17.95
2022-06-30T02:23:00,rvs,14.17
2022-06-30T02:24:00,rvs,14.16
2022-06-30T02:25:00,rvs,14.18
2022-06-30T02:26:00,rvs,14.12
2022-06-30T02:27:00,rvs,14.05
2022-06-30T02:28:00,rvs,13.92
2022-06-30T02:29:00,rvs,13.92
2022-06-30T02:30:00,rvs,13.87
2022-06-30T02:31:00,rvs,13.79
2022-06-30T02:32:00,rvs,13.75
2022-06-30T02:33:00,rvs,11.68
2022-06-30T02:34:00,rvs,11.63
2022-06-30T02:35:00,rvs,11.61
2022-06-30T02:36:00,rvs,11.63
2022-06-30T02:37:00,rvs,11.68
2022-06-30T02:38:00,rvs,11.84
2022-06-30T02:39:00,rvs,11.62
2022-06-30T02:40:00,rvs,11.79
2022-06-30T02:41:00,rvs,11.67
2022-06-30T02:42:00,rvs,11.69
2022-06-30T02:43:00,rvs,11.69
2022-06-30T02:44:00,rvs,11.65
2022-06-30T02:45:00,rvs,11.63
2022-06-30T02:46:00,rvs,11.65
2022-06-30T02:47:00,rvs,11.63
2022-06-30T02:48:00,rvs,13.45
2022-06-30T02:49:00,rvs,13.91
2022-06-30T02:50:00,rvs,14.11
2022-06-30T02:51:00,rvs,13.26
2022-06-30T02:52:00,rvs,13.35
2022-06-30T02:53:00,rvs,11.69
2022-06-30T02:54:00,rvs,11.67
2022-06-30T02:55:00,rvs,11.65
2022-06-30T02:56:00,rvs,11.83
2022-06-30T02:57:00,rvs,12.78
2022-06-30T02:58:00,rvs,14.30
2022-06-30T02:59:00,rvs,14.39
2022-06-30T03:00:00,rvs,14.27
2022-06-30T03:01:00,rvs,14.37
2022-06-30T03:02:00,rvs,14.37
2022-06-30T03:03:00,rvs,14.07
2022-06-30T03:04:00,rvs,13.83
2022-06-30T03:05:00,rvs,13.57
2022-06-30T03:06:00,rvs,13.70
2022-06-30T03:07:00,rvs,13.79
2022-06-30T03:08:00,rvs,13.46
2022-06-30T03:09:00,rvs,13.88
2022-06-30T03:10:00,rvs,14.16
2022-06-30T03:11:00,rvs,15.55
2022-06-30T03:12:00,rvs,16.01
2022-06-30T03:13:00,rvs,16.80
2022-06-30T03:14:00,rvs,19.15
2022-06-30T03:15:00,rvs,19.45
2022-06-30T03:16:00,rvs,20.09
2022-06-30T03:17:00,rvs,19.95
2022-06-30T03:18:00,rvs,20.82
2022-06-30T03:19:00,rvs,20.58
2022-06-30T03:20:00,rvs,20.76
2022-06-30T03:21:00,rvs,21.07
2022-06-30T03:22:00,rvs,20.70
2022-06-30T03:23:00,rvs,20.69
2022-06-30T03:24:00,rvs,20.91
2022-06-30T03:25:00,rvs,21.15
2022-06-30T03:26:00,rvs,21.27
2022-06-30T03:27:00,rvs,22.07
2022-06-30T03:28:00,rvs,25.45
2022-06-30T03:29:00,rvs,24.89
2022-06-30T03:30:00,rvs,21.38
2022-06-30T03:31:00,rvs,21.49
2022-06-30T03:32:00,rvs,19.00
2022-06-30T03:33:00,rvs,19.38
2022-06-30T03:34:00,rvs,19.55
2022-06-30T03:35:00,rvs,19.71
2022-06-30T03:36:00,rvs,19.66
2022-06-30T03:37:00,rvs,19.96
2022-06-30T03:38:00,rvs,20.08
2022-06-30T03:39:00,rvs,20.02
2022-06-30T03:40:00,rvs,20.19
2022-06-30T03:41:00,rvs,20.19
2022-06-30T03:42:00,rvs,15.95
2022-06-30T03:43:00,rvs,16.01
2022-06-30T03:44:00,rvs,11.98
2022-06-30T03:45:00,rvs,12.15
2022-06-30T03:46:00,rvs,12.43
2022-06-30T03:47:00,rvs,12.17
2022-06-30T03:48:00,rvs,12.45
2022-06-30T03:49:00,rvs,12.08
2022-06-30T03:50:00,rvs,12.15
2022-06-30T03:51:00,rvs,12.19
2022-06-30T03:52:00,rvs,25.25
2022-06-30T03:53:00,rvs,25.30
2022-06-30T03:54:00,rvs,25.26
2022-06-30T03:55:00,rvs,12.76
2022-06-30T03:56:00,rvs,12.20
2022-06-30T03:57:00,rvs,11.57
2022-06-30T03:58:00,rvs,11.63
2022-06-30T03:59:00,rvs,11.87
2022-06-30T04:00:00,rvs,11.62
2022-06-30T04:01:00,rvs,11.56
2022-06-30T04:02:00,rvs,11.55
2022-06-30T04:03:00,rvs,13.48
2022-06-30T04:04:00,rvs,13.75
2022-06-30T04:05:00,rvs,13.94
2022-06-30T04:06:00,rvs,13.93
2022-06-30T04:07:00,rvs,14.25
2022-06-30T04:08:00,rvs,14.86
2022-06-30T04:09:00,rvs,14.88
2022-06-30T04:10:00,rvs,15.31
2022-06-30T04:11:00,rvs,15.62
2022-06-30T04:12:00,rvs,15.30
2022-06-30T04:13:00,rvs,15.08
2022-06-30T04:14:00,rvs,13.31
2022-06-30T04:15:00,rvs,13.64
2022-06-30T04:16:00,rvs,13.89
2022-06-30T04:17:00,rvs,14.01
2022-06-30T04:18:00,rvs,14.21
2022-06-30T04:19:00,rvs,14.69
2022-06-30T04:20:00,rvs,14.97
2022-06-30T04:21:00,rvs,17.44
2022-06-30T04:22:00,rvs,17.34
2022-06-30T04:23:00,rvs,17.56
2022-06-30T04:24:00,rvs,16.93
2022-06-30T04:25:00,rvs,17.08
2022-06-30T04:26:00,rvs,14.07
2022-06-30T04:27:00,rvs,15.17
2022-06-30T04:28:00,rvs,15.19
2022-06-30T04:29:00,rvs,15.16
2022-06-30T04:30:00,rvs,15.19
2022-06-30T04:31:00,rvs,14.60
2022-06-30T04:32:00,rvs,14.50
2022-06-30T04:33:00,rvs,14.65
2022-06-30T04:34:00,rvs,14.41
2022-06-30T04:35:00,rvs,14.41
2022-06-30T04:36:00,rvs,14.03
2022-06-30T04:37:00,rvs,14.05
2022-06-30T04:38:00,rvs,13.94
2022-06-30T04:39:00,rvs,12.83
2022-06-30T04:40:00,rvs,12.69
2022-06-30T04:41:00,rvs,12.13
2022-06-30T04:42:00,rvs,12.07
2022-06-30T04:43:00,rvs,12.00
2022-06-30T04:44:00,rvs,12.01
2022-06-30T04:45:00,rvs,12.03
2022-06-30T04:46:00,rvs,12.02
2022-06-30T04:47:00,rvs,11.97
2022-06-30T04:48:00,rvs,12.00
2022-06-30T04:49:00,rvs,12.02
2022-06-30T04:50:00,rvs,12.14
2022-06-30T04:51:00,rvs,12.08
2022-06-30T04:52:00,rvs,12.47
2022-06-30T04:53:00,rvs,12.49
2022-06-30T04:54:00,rvs,12.23
2022-06-30T04:55:00,rvs,12.17
2022-06-30T04:56:00,rvs,12.14
2022-06-30T04:57:00,rvs,12.10
2022-06-30T04:58:00,rvs,12.44
2022-06-30T04:59:00,rvs,12.24
2022-06-30T05:00:00,rvs,12.47
2022-06-30T05:01:00,rvs,12.06
2022-06-30T05:02:00,rvs,11.62
2022-06-30T05:03:00,rvs,11.56
2022-06-30T05:04:00,rvs,11.57
2022-06-30T05:05:00,rvs,11.55
2022-06-30T05:06:00,rvs,11.54
2022-06-30T05:07:00,rvs,11.52
2022-06-30T05:08:00,rvs,11.58
2022-06-30T05:09:00,rvs,11.52
2022-06-30T05:10:00,rvs,11.50
2022-06-30T05:11:00,rvs,11.31
2022-06-30T05:12:00,rvs,13.00
2022-06-30T05:13:00,rvs,12.92
2022-06-30T05:14:00,rvs,13.11
2022-06-30T05:15:00,rvs,12.50
2022-06-30T05:16:00,rvs,12.50
2022-06-30T05:17:00,rvs,12.40
2022-06-30T05:18:00,rvs,12.54
2022-06-30T05:19:00,rvs,12.33
2022-06-30T05:20:00,rvs,12.58
2022-06-30T05:21:00,rvs,12.44
2022-06-30T05:22:00,rvs,11.93
2022-06-30T05:23:00,rvs,12.29
2022-06-30T05:24:00,rvs,12.39
2022-06-30T05:25:00,rvs,11.96
2022-06-30T05:26:00,rvs,12.46
2022-06-30T05:27:00,rvs,12.10
2022-06-30T05:28:00,rvs,11.60
2022-06-30T05:29:00,rvs,12.05
2022-06-30T05:30:00,rvs,11.60
2022-06-30T05:31:00,rvs,13.40
2022-06-30T05:32:00,rvs,13.39
2022-06-30T05:33:00,rvs,13.58
2022-06-30T05:34:00,rvs,13.55
2022-06-30T05:35:00,rvs,11.88
2022-06-30T05:36:00,rvs,11.83
2022-06-30T05:37:00,rvs,11.79
2022-06-30T05:38:00,rvs,11.84
2022-06-30T05:39:00,rvs,11.81
2022-06-30T05:40:00,rvs,11.86
2022-06-30T05:41:00,rvs,13.61
2022-06-30T05:42:00,rvs,14.00
2022-06-30T05:43:00,rvs,14.22
2022-06-30T05:44:00,rvs,14.52
2022-06-30T05:45:00,rvs,15.25
2022-06-30T05:46:00,rvs,16.10
2022-06-30T05:47:00,rvs,34.69
2022-06-30T05:48:00,rvs,15.80
2022-06-30T05:49:00,rvs,15.98
2022-06-30T05:50:00,rvs,16.42
2022-06-30T05:51:00,rvs,16.72
2022-06-30T05:52:00,rvs,17.44
2022-06-30T05:53:00,rvs,17.94
2022-06-30T05:54:00,rvs,18.02
2022-06-30T05:55:00,rvs,17.94
2022-06-30T05:56:00,rvs,17.29
2022-06-30T05:57:00,rvs,16.97
2022-06-30T05:58:00,rvs,16.90
2022-06-30T05:59:00,rvs,15.42
2022-06-30T06:00:00,rvs,11.40
2022-06-30T06:01:00,rvs,11.54
2022-06-30T06:02:00,rvs,11.40
2022-06-30T06:03:00,rvs,11.34
2022-06-30T06:04:00,rvs,11.38
2022-06-30T06:05:00,rvs,11.29
2022-06-30T06:06:00,rvs,11.41
2022-06-30T06:07:00,rvs,11.39
2022-06-30T06:08:00,rvs,11.47
2022-06-30T06:09:00,rvs,13.17
2022-06-30T06:10:00,rvs,11.57
2022-06-30T06:11:00,rvs,12.07
2022-06-30T06:12:00,rvs,12.06
2022-06-30T06:13:00,rvs,12.01
2022-06-30T06:14:00,rvs,12.02
2022-06-30T06:15:00,rvs,11.95
2022-06-30T06:16:00,rvs,12.07
2022-06-30T06:17:00,rvs,12.07
2022-06-30T06:18:00,rvs,12.12
2022-06-30T06:19:00,rvs,12.10
2022-06-30T06:20:00,rvs,12.33
2022-06-30T06:21:00,rvs,12.96
2022-06-30T06:22:00,rvs,14.36
2022-06-30T06:23:00,rvs,15.01
2022-06-30T06:24:00,rvs,27.69
2022-06-30T06:25:00,rvs,25.39
2022-06-30T06:26:00,rvs,25.56
2022-06-30T06:27:00,rvs,25.31
2022-06-30T06:28:00,rvs,12.88
2022-06-30T06:29:00,rvs,12.36
2022-06-30T06:30:00,rvs,12.26
2022-06-30T06:31:00,rvs,12.31
2022-06-30T06:32:00,rvs,12.37
2022-06-30T06:33:00,rvs,12.21
2022-06-30T06:34:00,rvs,12.33
2022-06-30T06:35:00,rvs,12.38
2022-06-30T06:36:00,rvs,12.71
2022-06-30T06:37:00,rvs,12.33
2022-06-30T06:38:00,rvs,12.79
2022-06-30T06:39:00,rvs,14.26
2022-06-30T06:40:00,rvs,12.42
2022-06-30T06:41:00,rvs,12.80
2022-06-30T06:42:00,rvs,12.02
2022-06-30T06:43:00,rvs,12.02
2022-06-30T06:44:00,rvs,12.14
2022-06-30T06:45:00,rvs,12.45
2022-06-30T06:46:00,rvs,12.18
2022-06-30T06:47:00,rvs,12.36
2022-06-30T06:48:00,rvs,12.57
2022-06-30T06:49:00,rvs,13.11
2022-06-30T06:50:00,rvs,14.45
2022-06-30T06:51:00,rvs,14.02
2022-06-30T06:52:00,rvs,15.74
2022-06-30T06:53:00,rvs,16.00
2022-06-30T06:54:00,rvs,16.03
2022-06-30T06:55:00,rvs,16.59
2022-06-30T06:56:00,rvs,16.93
2022-06-30T06:57:00,rvs,16.09
2022-06-30T06:58:00,rvs,18.12
2022-06-30T06:59:00,rvs,18.25
2022-06-30T07:00:00,rvs,18.28
2022-06-30T07:01:00,rvs,18.82
2022-06-30T07:02:00,rvs,18.92
2022-06-30T07:03:00,rvs,16.35
2022-06-30T07:04:00,rvs,18.33
2022-06-30T07:05:00,rvs,22.39
2022-06-30T07:06:00,rvs,22.80
2022-06-30T07:07:00,rvs,21.46
2022-06-30T07:08:00,rvs,19.31
2022-06-30T07:09:00,rvs,20.16
2022-06-30T07:10:00,rvs,21.22
2022-06-30T07:11:00,rvs,21.29
2022-06-30T07:12:00,rvs,16.30
2022-06-30T07:13:00,rvs,16.16
2022-06-30T07:14:00,rvs,16.33
2022-06-30T07:15:00,rvs,16.91
2022-06-30T07:16:00,rvs,12.64
2022-06-30T07:17:00,rvs,12.59
2022-06-30T07:18:00,rvs,12.66
2022-06-30T07:19:00,rvs,12.59
2022-06-30T07:20:00,rvs,15.42
2022-06-30T07:21:00,rvs,16.29
2022-06-30T07:22:00,rvs,16.35
2022-06-30T07:23:00,rvs,18.31
2022-06-30T07:24:00,rvs,17.30
2022-06-30T07:25:00,rvs,18.13
2022-06-30T07:26:00,rvs,19.49
2022-06-30T07:27:00,rvs,18.64
2022-06-30T07:28:00,rvs,17.20
2022-06-30T07:29:00,rvs,17.18
2022-06-30T07:30:00,rvs,17.49
2022-06-30T07:31:00,rvs,17.95
2022-06-30T07:32:00,rvs,17.23
2022-06-30T07:33:00,rvs,16.78
2022-06-30T07:34:00,rvs,16.89
2022-06-30T07:35:00,rvs,17.45
2022-06-30T07:36:00,rvs,17.06
2022-06-30T07:37:00,rvs,16.45
2022-06-30T07:38:00,rvs,16.35
2022-06-30T07:39:00,rvs,16.77
2022-06-30T07:40:00,rvs,16.91
2022-06-30T07:41:00,rvs,16.98
2022-06-30T07:42:00,rvs,17.43
2022-06-30T07:43:00,rvs,18.06
2022-06-30T07:44:00,rvs,18.23
2022-06-30T07:45:00,rvs,17.93
2022-06-30T07:46:00,rvs,17.74
2022-06-30T07:47:00,rvs,17.51
2022-06-30T07:48:00,rvs,18.64
2022-06-30T07:49:00,rvs,17.58
2022-06-30T07:50:00,rvs,17.77
2022-06-30T07:51:00,rvs,18.32
2022-06-30T07:52:00,rvs,18.80
2022-06-30T07:53:00,rvs,18.94
2022-06-30T07:54:00,rvs,21.64
2022-06-30T07:55:00,rvs,24.01
2022-06-30T07:56:00,rvs,23.84
2022-06-30T07:57:00,rvs,22.88
2022-06-30T07:58:00,rvs,24.36
2022-06-30T07:59:00,rvs,22.03
2022-06-30T08:00:00,rvs,18.76
2022-06-30T08:01:00,rvs,18.77
2022-06-30T08:02:00,rvs,19.98
2022-06-30T08:03:00,rvs,21.00
2022-06-30T08:04:00,rvs,21.69
2022-06-30T08:05:00,rvs,21.32
2022-06-30T08:06:00,rvs,21.44
2022-06-30T08:07:00,rvs,21.60
2022-06-30T08:08:00,rvs,20.90
2022-06-30T08:09:00,rvs,20.47
2022-06-30T08:10:00,rvs,20.15
2022-06-30T08:11:00,rvs,16.52
2022-06-30T08:12:00,rvs,17.24
2022-06-30T08:13:00,rvs,17.42
2022-06-30T08:14:00,rvs,17.18
2022-06-30T08:15:00,rvs,17.42
2022-06-30T08:16:00,rvs,12.89
2022-06-30T08:17:00,rvs,13.00
2022-06-30T08:18:00,rvs,12.99
2022-06-30T08:19:00,rvs,12.77
2022-06-30T08:20:00,rvs,12.86
2022-06-30T08:21:00,rvs,12.96
2022-06-30T08:22:00,rvs,12.79
2022-06-30T08:23:00,rvs,12.88
2022-06-30T08:24:00,rvs,12.89
2022-06-30T08:25:00,rvs,13.05
2022-06-30T08:26:00,rvs,13.22
2022-06-30T08:27:00,rvs,12.82
2022-06-30T08:28:00,rvs,15.49
2022-06-30T08:29:00,rvs,16.29
2022-06-30T08:30:00,rvs,18.44
2022-06-30T08:31:00,rvs,19.41
2022-06-30T08:32:00,rvs,19.47
2022-06-30T08:33:00,rvs,19.90
2022-06-30T08:34:00,rvs,20.48
2022-06-30T08:35:00,rvs,20.64
2022-06-30T08:36:00,rvs,20.57
2022-06-30T08:37:00,rvs,22.15
2022-06-30T08:38:00,rvs,22.22
2022-06-30T08:39:00,rvs,22.50
2022-06-30T08:40:00,rvs,41.72
2022-06-30T08:41:00,rvs,24.05
2022-06-30T08:42:00,rvs,23.71
2022-06-30T08:43:00,rvs,20.01
2022-06-30T08:44:00,rvs,19.79
2022-06-30T08:45:00,rvs,19.74
2022-06-30T08:46:00,rvs,19.44
2022-06-30T08:47:00,rvs,19.21
2022-06-30T08:48:00,rvs,19.27
2022-06-30T08:49:00,rvs,19.37
2022-06-30T08:50:00,rvs,19.75
2022-06-30T08:51:00,rvs,20.09
2022-06-30T08:52:00,rvs,20.22
2022-06-30T08:53:00,rvs,18.10
2022-06-30T08:54:00,rvs,18.09
2022-06-30T08:55:00,rvs,18.94
2022-06-30T08:56:00,rvs,19.30
2022-06-30T08:57:00,rvs,15.55
2022-06-30T08:58:00,rvs,15.42
2022-06-30T08:59:00,rvs,15.07
2022-06-30T09:00:00,rvs,15.96
2022-06-30T09:01:00,rvs,13.00
2022-06-30T09:02:00,rvs,12.63
2022-06-30T09:03:00,rvs,12.95
2022-06-30T09:04:00,rvs,12.54
2022-06-30T09:05:00,rvs,14.83
2022-06-30T09:06:00,rvs,14.87
2022-06-30T09:07:00,rvs,28.69
2022-06-30T09:08:00,rvs,29.55
2022-06-30T09:09:00,rvs,29.11
2022-06-30T09:10:00,rvs,28.79
2022-06-30T09:11:00,rvs,16.88
2022-06-30T09:12:00,rvs,16.64
2022-06-30T09:13:00,rvs,16.08
2022-06-30T09:14:00,rvs,16.00
2022-06-30T09:15:00,rvs,16.41
2022-06-30T09:16:00,rvs,16.48
2022-06-30T09:17:00,rvs,16.26
2022-06-30T09:18:00,rvs,16.10
2022-06-30T09:19:00,rvs,15.95
2022-06-30T09:20:00,rvs,13.64
2022-06-30T09:21:00,rvs,13.64
2022-06-30T09:22:00,rvs,12.22
2022-06-30T09:23:00,rvs,12.25
2022-06-30T09:24:00,rvs,13.80
2022-06-30T09:25:00,rvs,16.96
2022-06-30T09:26:00,rvs,18.28
2022-06-30T09:27:00,rvs,21.03
2022-06-30T09:28:00,rvs,21.51
2022-06-30T09:29:00,rvs,22.20
2022-06-30T09:30:00,rvs,22.14
2022-06-30T09:31:00,rvs,22.11
2022-06-30T09:32:00,rvs,22.66
2022-06-30T09:33:00,rvs,23.15
2022-06-30T09:34:00,rvs,22.63
2022-06-30T09:35:00,rvs,22.77
2022-06-30T09:36:00,rvs,18.80
2022-06-30T09:37:00,rvs,36.21
2022-06-30T09:38:00,rvs,19.03
2022-06-30T09:39:00,rvs,19.56
2022-06-30T09:40:00,rvs,18.41
2022-06-30T09:41:00,rvs,18.23
2022-06-30T09:42:00,rvs,18.28
2022-06-30T09:43:00,rvs,20.31
2022-06-30T09:44:00,rvs,20.13
2022-06-30T09:45:00,rvs,20.24
2022-06-30T09:46:00,rvs,20.67
2022-06-30T09:47:00,rvs,21.07
2022-06-30T09:48:00,rvs,20.74
2022-06-30T09:49:00,rvs,21.22
2022-06-30T09:50:00,rvs,25.79
2022-06-30T09:51:00,rvs,28.94
2022-06-30T09:52:00,rvs,28.84
2022-06-30T09:53:00,rvs,25.84
2022-06-30T09:54:00,rvs,25.97
2022-06-30T09:55:00,rvs,26.91
2022-06-30T09:56:00,rvs,20.89
2022-06-30T09:57:00,rvs,20.91
2022-06-30T09:58:00,rvs,19.86
2022-06-30T09:59:00,rvs,15.38
2022-06-30T10:00:00,rvs,15.48
2022-06-30T10:01:00,rvs,15.44
2022-06-30T10:02:00,rvs,15.52
2022-06-30T10:03:00,rvs,15.35
2022-06-30T10:04:00,rvs,12.00
2022-06-30T10:05:00,rvs,11.80
2022-06-30T10:06:00,rvs,11.80
2022-06-30T10:07:00,rvs,12.06
2022-06-30T10:08:00,rvs,12.05
2022-06-30T10:09:00,rvs,12.05
2022-06-30T10:10:00,rvs,12.66
2022-06-30T10:11:00,rvs,12.67
2022-06-30T10:12:00,rvs,12.67
2022-06-30T10:13:00,rvs,11.98
2022-06-30T10:14:00,rvs,11.98
2022-06-30T10:15:00,rvs,14.01
2022-06-30T10:16:00,rvs,14.93
2022-06-30T10:17:00,rvs,15.05
2022-06-30T10:18:00,rvs,14.86
2022-06-30T10:19:00,rvs,14.94
2022-06-30T10:20:00,rvs,15.27
2022-06-30T10:21:00,rvs,15.17
2022-06-30T10:22:00,rvs,15.25
2022-06-30T10:23:00,rvs,15.09
2022-06-30T10:24:00,rvs,14.87
2022-06-30T10:25:00,rvs,15.06
2022-06-30T10:26:00,rvs,15.14
2022-06-30T10:27:00,rvs,15.18
2022-06-30T10:28:00,rvs,14.88
2022-06-30T10:29:00,rvs,15.08
2022-06-30T10:30:00,rvs,17.57
2022-06-30T10:31:00,rvs,17.54
2022-06-30T10:32:00,rvs,17.98
2022-06-30T10:33:00,rvs,18.66
2022-06-30T10:34:00,rvs,19.27
2022-06-30T10:35:00,rvs,16.02
2022-06-30T10:36:00,rvs,16.05
2022-06-30T10:37:00,rvs,12.36
2022-06-30T10:38:00,rvs,12.11
2022-06-30T10:39:00,rvs,12.01
2022-06-30T10:40:00,rvs,11.91
2022-06-30T10:41:00,rvs,11.93
2022-06-30T10:42:00,rvs,11.91
2022-06-30T10:43:00,rvs,12.00
2022-06-30T10:44:00,rvs,12.01
2022-06-30T10:45:00,rvs,12.00
2022-06-30T10:46:00,rvs,12.26
2022-06-30T10:47:00,rvs,11.97
2022-06-30T10:48:00,rvs,14.61
2022-06-30T10:49:00,rvs,15.13
2022-06-30T10:50:00,rvs,15.02
2022-06-30T10:51:00,rvs,15.83
2022-06-30T10:52:00,rvs,16.44
2022-06-30T10:53:00,rvs,15.94
2022-06-30T10:54:00,rvs,15.83
2022-06-30T10:55:00,rvs,15.80
2022-06-30T10:56:00,rvs,15.69
2022-06-30T10:57:00,rvs,18.46
2022-06-30T10:58:00,rvs,19.58
2022-06-30T10:59:00,rvs,20.22
2022-06-30T11:00:00,rvs,15.85
2022-06-30T11:01:00,rvs,16.34
2022-06-30T11:02:00,rvs,16.76
2022-06-30T11:03:00,rvs,18.20
2022-06-30T11:04:00,rvs,19.34
2022-06-30T11:05:00,rvs,20.04
2022-06-30T11:06:00,rvs,22.20
2022-06-30T11:07:00,rvs,22.84
2022-06-30T11:08:00,rvs,23.58
2022-06-30T11:09:00,rvs,23.51
2022-06-30T11:10:00,rvs,24.21
2022-06-30T11:11:00,rvs,23.97
2022-06-30T11:12:00,rvs,19.31
2022-06-30T11:13:00,rvs,19.34
2022-06-30T11:14:00,rvs,19.81
2022-06-30T11:15:00,rvs,22.58
2022-06-30T11:16:00,rvs,23.29
2022-06-30T11:17:00,rvs,23.80
2022-06-30T11:18:00,rvs,22.63
2022-06-30T11:19:00,rvs,20.78
2022-06-30T11:20:00,rvs,19.24
2022-06-30T11:21:00,rvs,19.21
2022-06-30T11:22:00,rvs,15.73
2022-06-30T11:23:00,rvs,15.88
2022-06-30T11:24:00,rvs,15.92
2022-06-30T11:25:00,rvs,16.34
2022-06-30T11:26:00,rvs,16.37
2022-06-30T11:27:00,rvs,19.51
2022-06-30T11:28:00,rvs,19.91
2022-06-30T11:29:00,rvs,22.27
2022-06-30T11:30:00,rvs,22.68
2022-06-30T11:31:00,rvs,23.51
2022-06-30T11:32:00,rvs,23.40
2022-06-30T11:33:00,rvs,24.92
2022-06-30T11:34:00,rvs,22.87
2022-06-30T11:35:00,rvs,23.07
2022-06-30T11:36:00,rvs,22.74
2022-06-30T11:37:00,rvs,18.44
2022-06-30T11:38:00,rvs,18.17
2022-06-30T11:39:00,rvs,14.76
2022-06-30T11:40:00,rvs,14.86
2022-06-30T11:41:00,rvs,15.01
2022-06-30T11:42:00,rvs,14.64
2022-06-30T11:43:00,rvs,16.75
2022-06-30T11:44:00,rvs,17.14
2022-06-30T11:45:00,rvs,17.38
2022-06-30T11:46:00,rvs,18.86
2022-06-30T11:47:00,rvs,20.52
2022-06-30T11:48:00,rvs,20.80
2022-06-30T11:49:00,rvs,19.19
2022-06-30T11:50:00,rvs,31.67
2022-06-30T11:51:00,rvs,31.77
2022-06-30T11:52:00,rvs,29.11
2022-06-30T11:53:00,rvs,29.24
2022-06-30T11:54:00,rvs,29.01
2022-06-30T11:55:00,rvs,16.65
2022-06-30T11:56:00,rvs,19.20
2022-06-30T11:57:00,rvs,19.55
2022-06-30T11:58:00,rvs,19.81
2022-06-30T11:59:00,rvs,21.12
2022-06-30T12:00:00,rvs,20.99
2022-06-30T12:01:00,rvs,25.95
2022-06-30T12:02:00,rvs,29.07
2022-06-30T12:03:00,rvs,25.69
2022-06-30T12:04:00,rvs,27.36
2022-06-30T12:05:00,rvs,26.85
2022-06-30T12:06:00,rvs,23.41
2022-06-30T12:07:00,rvs,23.43
2022-06-30T12:08:00,rvs,18.67
2022-06-30T12:09:00,rvs,21.66
2022-06-30T12:10:00,rvs,20.96
2022-06-30T12:11:00,rvs,17.58
2022-06-30T12:12:00,rvs,17.70
2022-06-30T12:13:00,rvs,17.53
2022-06-30T12:14:00,rvs,14.67
2022-06-30T12:15:00,rvs,16.08
2022-06-30T12:16:00,rvs,16.47
2022-06-30T12:17:00,rvs,17.54
2022-06-30T12:18:00,rvs,17.46
2022-06-30T12:19:00,rvs,18.09
2022-06-30T12:20:00,rvs,17.95
2022-06-30T12:21:00,rvs,18.18
2022-06-30T12:22:00,rvs,15.98
2022-06-30T12:23:00,rvs,15.68
2022-06-30T12:24:00,rvs,15.02
2022-06-30T12:25:00,rvs,14.99
2022-06-30T12:26:00,rvs,15.26
2022-06-30T12:27:00,rvs,15.29
2022-06-30T12:28:00,rvs,15.30
2022-06-30T12:29:00,rvs,12.41
2022-06-30T12:30:00,rvs,12.53
2022-06-30T12:31:00,rvs,12.53
2022-06-30T12:32:00,rvs,12.55
2022-06-30T12:33:00,rvs,12.60
2022-06-30T12:34:00,rvs,12.53
2022-06-30T12:35:00,rvs,12.54
2022-06-30T12:36:00,rvs,12.48
2022-06-30T12:37:00,rvs,12.52
2022-06-30T12:38:00,rvs,12.50
2022-06-30T12:39:00,rvs,12.46
2022-06-30T12:40:00,rvs,12.15
2022-06-30T12:41:00,rvs,11.94
2022-06-30T12:42:00,rvs,11.96
2022-06-30T12:43:00,rvs,11.98
2022-06-30T12:44:00,rvs,11.86
2022-06-30T12:45:00,rvs,11.90
2022-06-30T12:46:00,rvs,11.83
2022-06-30T12:47:00,rvs,12.01
2022-06-30T12:48:00,rvs,12.18
2022-06-30T12:49:00,rvs,12.37
2022-06-30T12:50:00,rvs,12.24
2022-06-30T12:51:00,rvs,14.85
2022-06-30T12:52:00,rvs,14.31
2022-06-30T12:53:00,rvs,14.74
2022-06-30T12:54:00,rvs,15.36
2022-06-30T12:55:00,rvs,16.62
2022-06-30T12:56:00,rvs,15.12
2022-06-30T12:57:00,rvs,14.60
2022-06-30T12:58:00,rvs,14.98
2022-06-30T12:59:00,rvs,15.81
2022-06-30T13:00:00,rvs,12.26
2022-06-30T13:01:00,rvs,12.23
2022-06-30T13:02:00,rvs,12.08
2022-06-30T13:03:00,rvs,11.92
2022-06-30T13:04:00,rvs,12.42
2022-06-30T13:05:00,rvs,12.44
2022-06-30T13:06:00,rvs,12.16
2022-06-30T13:07:00,rvs,12.09
2022-06-30T13:08:00,rvs,12.47
2022-06-30T13:09:00,rvs,15.26
2022-06-30T13:10:00,rvs,15.54
2022-06-30T13:11:00,rvs,15.12
2022-06-30T13:12:00,rvs,16.23
2022-06-30T13:13:00,rvs,18.22
2022-06-30T13:14:00,rvs,20.11
2022-06-30T13:15:00,rvs,20.27
2022-06-30T13:16:00,rvs,21.24
2022-06-30T13:17:00,rvs,22.22
2022-06-30T13:18:00,rvs,21.29